| time (UTC) | temp F | wind direction | speed MPH | gust MPH | rain 1hr in | rain 24hr in | rain mn in | humidity % | barometer mb |
| 20260505053046 | 72 | 202 | 23.0 | 30.0 | 0.00 | 0.00 | 0.00 | 74 | 1007.8 |
| 20260505051541 | 72 | 186 | 19.0 | 30.0 | 0.00 | 0.00 | 0.00 | 73 | 1007.8 |
| 20260505041541 | 74 | 200 | 20.0 | 31.0 | 0.00 | 0.00 | 0.00 | 71 | 1007.6 |
| 20260505040045 | 74 | 203 | 20.0 | 28.0 | 0.00 | 0.00 | 0.00 | 70 | 1007.7 |
| 20260505034547 | 75 | 197 | 18.0 | 25.0 | 0.00 | 0.00 | 0.00 | 69 | 1007.5 |
| 20260505033045 | 75 | 203 | 17.0 | 27.0 | 0.00 | 0.00 | 0.00 | 68 | 1007.5 |
| 20260505031554 | 75 | 182 | 15.0 | 22.0 | 0.00 | 0.00 | 0.00 | 67 | 1007.5 |
| 20260505030046 | 76 | 191 | 16.0 | 22.0 | 0.00 | 0.00 | 0.00 | 65 | 1007.2 |
| 20260505024552 | 77 | 202 | 16.0 | 21.0 | 0.00 | 0.00 | 0.00 | 63 | 1007.3 |
| 20260505023048 | 77 | 198 | 13.0 | 18.0 | 0.00 | 0.00 | 0.00 | 63 | 1007.2 |
| 20260505021544 | 78 | 213 | 13.0 | 18.0 | 0.00 | 0.00 | 0.00 | 61 | 1007.2 |
| 20260505020043 | 79 | 207 | 15.0 | 23.0 | 0.00 | 0.00 | 0.00 | 58 | 1007.2 |
| 20260505014600 | 80 | 214 | 16.0 | 24.0 | 0.00 | 0.00 | 0.00 | 57 | 1007.0 |
| 20260505013048 | 80 | 207 | 13.0 | 20.0 | 0.00 | 0.00 | 0.00 | 56 | 1007.2 |
| 20260505011551 | 81 | 215 | 16.0 | 21.0 | 0.00 | 0.00 | 0.00 | 55 | 1007.0 |
| 20260505010045 | 82 | 216 | 11.0 | 19.0 | 0.00 | 0.00 | 0.00 | 54 | 1007.0 |
| 20260505004545 | 82 | 212 | 13.0 | 20.0 | 0.00 | 0.00 | 0.00 | 52 | 1007.0 |
| 20260505003042 | 83 | 224 | 16.0 | 23.0 | 0.00 | 0.00 | 0.00 | 51 | 1007.0 |
| 20260505001547 | 83 | 204 | 17.0 | 24.0 | 0.00 | 0.00 | 0.00 | 50 | 1007.1 |
| 20260505000052 | 84 | 225 | 19.0 | 25.0 | 0.00 | 0.00 | 0.00 | 47 | 1007.3 |
| 20260504234545 | 85 | 205 | 20.0 | 26.0 | 0.00 | 0.00 | 0.00 | 47 | 1007.3 |
| 20260504233044 | 85 | 211 | 22.0 | 26.0 | 0.00 | 0.00 | 0.00 | 46 | 1007.4 |
| 20260504231545 | 86 | 190 | 18.0 | 29.0 | 0.00 | 0.00 | 0.00 | 46 | 1007.3 |
| 20260504230049 | 86 | 217 | 20.0 | 27.0 | 0.00 | 0.00 | 0.00 | 45 | 1007.3 |
| 20260504224548 | 86 | 201 | 21.0 | 28.0 | 0.00 | 0.00 | 0.00 | 45 | 1007.4 |
| 20260504223047 | 86 | 198 | 20.0 | 27.0 | 0.00 | 0.00 | 0.00 | 46 | 1007.7 |
| 20260504221545 | 86 | 198 | 17.0 | 27.0 | 0.00 | 0.00 | 0.00 | 45 | 1007.7 |
| 20260504220042 | 87 | 215 | 18.0 | 26.0 | 0.00 | 0.00 | 0.00 | 44 | 1007.9 |
| 20260504214553 | 87 | 225 | 16.0 | 23.0 | 0.00 | 0.00 | 0.00 | 46 | 1007.9 |
| 20260504213046 | 87 | 223 | 15.0 | 24.0 | 0.00 | 0.00 | 0.00 | 46 | 1008.2 |
| 20260504211546 | 86 | 213 | 16.0 | 27.0 | 0.00 | 0.00 | 0.00 | 45 | 1008.5 |
| 20260504210058 | 86 | 223 | 16.0 | 24.0 | 0.00 | 0.00 | 0.00 | 45 | 1009.2 |
| 20260504204557 | 86 | 222 | 16.0 | 24.0 | 0.00 | 0.00 | 0.00 | 47 | 1009.0 |
| 20260504203044 | 86 | 225 | 16.0 | 24.0 | 0.00 | 0.00 | 0.00 | 47 | 1009.2 |
| 20260504201547 | 85 | 207 | 14.0 | 23.0 | 0.00 | 0.00 | 0.00 | 48 | 1009.1 |
| 20260504200047 | 85 | 194 | 14.0 | 22.0 | 0.00 | 0.00 | 0.00 | 48 | 1009.4 |
| 20260504194542 | 84 | 225 | 16.0 | 23.0 | 0.00 | 0.00 | 0.00 | 48 | 1009.8 |
| 20260504193053 | 83 | 199 | 16.0 | 23.0 | 0.00 | 0.00 | 0.00 | 51 | 1010.1 |
| 20260504191554 | 82 | 221 | 17.0 | 25.0 | 0.00 | 0.00 | 0.00 | 52 | 1010.1 |
| 20260504190053 | 82 | 229 | 16.0 | 22.0 | 0.00 | 0.00 | 0.00 | 53 | 1010.6 |
| 20260504184545 | 80 | 211 | 16.0 | 22.0 | 0.00 | 0.00 | 0.00 | 55 | 1010.9 |
| 20260504183043 | 80 | 199 | 15.0 | 24.0 | 0.00 | 0.00 | 0.00 | 55 | 1011.2 |
| 20260504181543 | 80 | 209 | 17.0 | 25.0 | 0.00 | 0.00 | 0.00 | 56 | 1011.4 |
| 20260504180106 | 78 | 236 | 15.0 | 23.0 | 0.00 | 0.00 | 0.00 | 58 | 1011.7 |
| 20260504174547 | 78 | 190 | 18.0 | 25.0 | 0.00 | 0.00 | 0.00 | 60 | 1012.0 |
| 20260504173058 | 77 | 217 | 15.0 | 24.0 | 0.00 | 0.00 | 0.00 | 61 | 1012.0 |
| 20260504171546 | 76 | 209 | 18.0 | 25.0 | 0.00 | 0.00 | 0.00 | 60 | 1012.4 |
| 20260504120141 | 61 | 206 | 13.0 | 19.0 | 0.00 | 0.00 | 0.00 | 80 | 1012.5 |
| 20260504081547 | 62 | 213 | 5.0 | 9.0 | 0.00 | 0.00 | 0.00 | 67 | 1013.5 |